owner,sensor,date,latitude,longitude,vertical_datum,sea_water_temperature,qcFlag
ADCP,ioos:station:wmo:42384:1,2021-08-03T18:45:00Z,27.9920,-90.3255,0.2,35.9,11133222
ADCP,ioos:station:wmo:42384:1,2021-08-03T18:55:00Z,27.9920,-90.3255,0.2,35.6,11133222
ADCP,ioos:station:wmo:42384:1,2021-08-03T19:05:00Z,27.9920,-90.3255,0.1,35.1,11133222
ADCP,ioos:station:wmo:42384:1,2021-08-03T19:15:00Z,27.9920,-90.3255,0.0,34.7,11111222
ADCP,ioos:station:wmo:42384:1,2021-08-03T19:25:00Z,27.9920,-90.3255,0.1,34.3,11111222
ADCP,ioos:station:wmo:42384:1,2021-08-03T20:23:00Z,27.9920,-90.3255,0.3,32.6,11111222
ADCP,ioos:station:wmo:42384:1,2021-08-03T20:33:00Z,27.9920,-90.3255,0.3,32.5,11111222
ADCP,ioos:station:wmo:42384:1,2021-08-03T20:43:00Z,27.9920,-90.3255,0.3,32.5,11111222
ADCP,ioos:station:wmo:42384:1,2021-08-03T20:53:00Z,27.9920,-90.3255,0.3,32.5,11111222
ADCP,ioos:station:wmo:42384:1,2021-08-03T21:03:00Z,27.9920,-90.3255,0.2,32.3,11111222
ADCP,ioos:station:wmo:42384:1,2021-08-03T21:13:00Z,27.9920,-90.3255,0.2,31.9,11111222
ADCP,ioos:station:wmo:42384:1,2021-08-04T00:16:00Z,27.9920,-90.3255,6.4,29.5,11111222
ADCP,ioos:station:wmo:42384:1,2021-08-04T00:26:00Z,27.9920,-90.3255,6.4,29.5,11111222
ADCP,ioos:station:wmo:42384:1,2021-08-04T00:36:00Z,27.9920,-90.3255,6.4,29.5,11111222
ADCP,ioos:station:wmo:42384:1,2021-08-04T02:05:00Z,27.9920,-90.3255,6.7,29.5,11111222
ADCP,ioos:station:wmo:42384:1,2021-08-04T02:15:00Z,27.9920,-90.3255,6.6,29.5,11111222
ADCP,ioos:station:wmo:42384:1,2021-08-04T02:25:00Z,27.9920,-90.3255,6.4,29.6,11111222
ADCP,ioos:station:wmo:42384:1,2021-08-04T02:35:00Z,27.9920,-90.3255,6.3,29.6,11111222
ADCP,ioos:station:wmo:42384:1,2021-08-04T02:45:00Z,27.9920,-90.3255,6.3,29.6,11111222
ADCP,ioos:station:wmo:42384:1,2021-08-04T02:55:00Z,27.9920,-90.3255,6.3,29.5,11111222
ADCP,ioos:station:wmo:42384:1,2021-08-04T03:05:00Z,27.9920,-90.3255,6.2,29.5,11111222
ADCP,ioos:station:wmo:42384:1,2021-08-04T03:15:00Z,27.9920,-90.3255,6.4,29.5,11111222
ADCP,ioos:station:wmo:42384:1,2021-08-04T03:25:00Z,27.9920,-90.3255,6.6,29.6,11111222
ADCP,ioos:station:wmo:42384:1,2021-08-04T03:35:00Z,27.9920,-90.3255,6.5,29.6,11111222
ADCP,ioos:station:wmo:42384:1,2021-08-04T03:45:00Z,27.9920,-90.3255,6.5,29.6,11111222
ADCP,ioos:station:wmo:42384:1,2021-08-04T03:55:00Z,27.9920,-90.3255,6.5,29.5,11111222
ADCP,ioos:station:wmo:42384:1,2021-08-04T04:05:00Z,27.9920,-90.3255,6.6,29.5,11111222
ADCP,ioos:station:wmo:42384:1,2021-08-04T04:15:00Z,27.9920,-90.3255,6.6,29.5,11111222
ADCP,ioos:station:wmo:42384:1,2021-08-04T04:25:00Z,27.9920,-90.3255,6.5,29.5,11111222
ADCP,ioos:station:wmo:42384:1,2021-08-04T04:35:00Z,27.9920,-90.3255,6.7,29.5,11111222
ADCP,ioos:station:wmo:42384:1,2021-08-04T04:45:00Z,27.9920,-90.3255,6.7,29.4,11111222
ADCP,ioos:station:wmo:42384:1,2021-08-04T04:55:00Z,27.9920,-90.3255,6.6,29.4,11111222
ADCP,ioos:station:wmo:42384:1,2021-08-04T05:05:00Z,27.9920,-90.3255,6.6,29.4,11111222
ADCP,ioos:station:wmo:42384:1,2021-08-04T05:15:00Z,27.9920,-90.3255,6.5,29.5,11111222
ADCP,ioos:station:wmo:42384:1,2021-08-04T05:25:00Z,27.9920,-90.3255,6.6,29.3,11111222
ADCP,ioos:station:wmo:42384:1,2021-08-04T05:35:00Z,27.9920,-90.3255,6.7,29.4,11111222
ADCP,ioos:station:wmo:42384:1,2021-08-04T05:45:00Z,27.9920,-90.3255,6.7,29.5,11111222
ADCP,ioos:station:wmo:42384:1,2021-08-04T05:55:00Z,27.9920,-90.3255,6.6,29.5,11111222
ADCP,ioos:station:wmo:42384:1,2021-08-04T06:05:00Z,27.9920,-90.3255,6.6,29.4,11111222
ADCP,ioos:station:wmo:42384:1,2021-08-04T06:15:00Z,27.9920,-90.3255,6.6,29.4,11111222
ADCP,ioos:station:wmo:42384:1,2021-08-04T06:25:00Z,27.9920,-90.3255,6.7,29.5,11111222
ADCP,ioos:station:wmo:42384:1,2021-08-04T06:35:00Z,27.9920,-90.3255,6.8,29.5,11111222
ADCP,ioos:station:wmo:42384:1,2021-08-04T06:45:00Z,27.9920,-90.3255,6.6,29.5,11111222
ADCP,ioos:station:wmo:42384:1,2021-08-04T06:55:00Z,27.9920,-90.3255,6.6,29.5,11111222
ADCP,ioos:station:wmo:42384:1,2021-08-04T07:05:00Z,27.9920,-90.3255,6.4,29.5,11111222
ADCP,ioos:station:wmo:42384:1,2021-08-04T07:15:00Z,27.9920,-90.3255,6.5,29.5,11111222
ADCP,ioos:station:wmo:42384:1,2021-08-04T07:25:00Z,27.9920,-90.3255,6.5,29.5,11111222
ADCP,ioos:station:wmo:42384:1,2021-08-04T07:35:00Z,27.9920,-90.3255,6.5,29.6,11111222
ADCP,ioos:station:wmo:42384:1,2021-08-04T07:45:00Z,27.9920,-90.3255,6.6,29.6,11111222
ADCP,ioos:station:wmo:42384:1,2021-08-04T07:55:00Z,27.9920,-90.3255,6.6,29.7,11111222
ADCP,ioos:station:wmo:42384:1,2021-08-04T08:05:00Z,27.9920,-90.3255,6.6,29.7,11111222
ADCP,ioos:station:wmo:42384:1,2021-08-04T08:15:00Z,27.9920,-90.3255,6.5,29.7,11111222
ADCP,ioos:station:wmo:42384:1,2021-08-04T08:25:00Z,27.9920,-90.3255,6.7,29.6,11111222
ADCP,ioos:station:wmo:42384:1,2021-08-04T08:35:00Z,27.9920,-90.3255,6.6,29.6,11111222
ADCP,ioos:station:wmo:42384:1,2021-08-04T08:45:00Z,27.9920,-90.3255,6.5,29.6,11111222
ADCP,ioos:station:wmo:42384:1,2021-08-04T08:55:00Z,27.9920,-90.3255,6.6,29.6,11111222
ADCP,ioos:station:wmo:42384:1,2021-08-04T09:05:00Z,27.9920,-90.3255,6.6,29.6,11111222
ADCP,ioos:station:wmo:42384:1,2021-08-04T09:15:00Z,27.9920,-90.3255,6.6,29.6,11111222
ADCP,ioos:station:wmo:42384:1,2021-08-04T09:25:00Z,27.9920,-90.3255,6.6,29.6,11111222
ADCP,ioos:station:wmo:42384:1,2021-08-04T09:35:00Z,27.9920,-90.3255,6.4,29.6,11111222
ADCP,ioos:station:wmo:42384:1,2021-08-04T09:45:00Z,27.9920,-90.3255,6.6,29.6,11111222
ADCP,ioos:station:wmo:42384:1,2021-08-04T09:55:00Z,27.9920,-90.3255,6.7,29.6,11111222
ADCP,ioos:station:wmo:42384:1,2021-08-04T10:05:00Z,27.9920,-90.3255,6.6,29.6,11111222
ADCP,ioos:station:wmo:42384:1,2021-08-04T10:15:00Z,27.9920,-90.3255,6.6,29.6,11111222
ADCP,ioos:station:wmo:42384:1,2021-08-04T10:25:00Z,27.9920,-90.3255,6.7,29.6,11111222
ADCP,ioos:station:wmo:42384:1,2021-08-04T10:36:00Z,27.9920,-90.3255,6.6,29.7,11111222
ADCP,ioos:station:wmo:42384:1,2021-08-04T10:46:00Z,27.9920,-90.3255,6.7,29.7,11111222
ADCP,ioos:station:wmo:42384:1,2021-08-04T10:56:00Z,27.9920,-90.3255,6.7,29.7,11111222
ADCP,ioos:station:wmo:42384:1,2021-08-04T11:06:00Z,27.9920,-90.3255,6.8,29.8,11111222
ADCP,ioos:station:wmo:42384:1,2021-08-04T11:16:00Z,27.9920,-90.3255,6.7,29.8,11111222
ADCP,ioos:station:wmo:42384:1,2021-08-04T11:26:00Z,27.9920,-90.3255,6.8,29.8,11111222
ADCP,ioos:station:wmo:42384:1,2021-08-04T11:36:00Z,27.9920,-90.3255,6.7,29.8,11111222
ADCP,ioos:station:wmo:42384:1,2021-08-04T11:46:00Z,27.9920,-90.3255,6.9,29.8,11111222
ADCP,ioos:station:wmo:42384:1,2021-08-04T11:56:00Z,27.9920,-90.3255,4.6,29.8,11111222
ADCP,ioos:station:wmo:42384:1,2021-08-04T12:06:00Z,27.9920,-90.3255,0.2,29.3,11111222
ADCP,ioos:station:wmo:42384:1,2021-08-04T12:16:00Z,27.9920,-90.3255,0.2,28.8,11111222
ADCP,ioos:station:wmo:42384:1,2021-08-04T12:26:00Z,27.9920,-90.3255,0.2,28.7,11111222
ADCP,ioos:station:wmo:42384:1,2021-08-04T12:36:00Z,27.9920,-90.3255,0.2,28.6,11111222
ADCP,ioos:station:wmo:42384:1,2021-08-04T12:46:00Z,27.9920,-90.3255,0.1,28.0,11111222
ADCP,ioos:station:wmo:42384:1,2021-08-04T12:56:00Z,27.9920,-90.3255,0.1,27.7,11111222
ADCP,ioos:station:wmo:42384:1,2021-08-04T13:06:00Z,27.9920,-90.3255,0.2,27.3,11111222
ADCP,ioos:station:wmo:42384:1,2021-08-04T13:16:00Z,27.9920,-90.3255,0.2,26.9,11111222
ADCP,ioos:station:wmo:42384:1,2021-08-04T13:26:00Z,27.9920,-90.3255,0.2,27.0,11111222
ADCP,ioos:station:wmo:42384:1,2021-08-04T13:36:00Z,27.9920,-90.3255,0.2,27.1,11111222
ADCP,ioos:station:wmo:42384:1,2021-08-04T13:46:00Z,27.9920,-90.3255,0.2,27.1,11111222
ADCP,ioos:station:wmo:42384:1,2021-08-04T13:56:00Z,27.9920,-90.3255,0.2,26.3,11111222
ADCP,ioos:station:wmo:42384:1,2021-08-04T14:06:00Z,27.9920,-90.3255,0.2,26.3,11111222
ADCP,ioos:station:wmo:42384:1,2021-08-04T14:16:00Z,27.9920,-90.3255,0.2,26.7,11111222
ADCP,ioos:station:wmo:42384:1,2021-08-04T14:26:00Z,27.9920,-90.3255,0.2,27.0,11111222
ADCP,ioos:station:wmo:42384:1,2021-08-04T14:36:00Z,27.9920,-90.3255,0.2,27.3,11111222
ADCP,ioos:station:wmo:42384:1,2021-08-04T14:46:00Z,27.9920,-90.3255,0.1,27.4,11111222
ADCP,ioos:station:wmo:42384:1,2021-08-04T14:56:00Z,27.9920,-90.3255,0.1,27.5,11111222
ADCP,ioos:station:wmo:42384:1,2021-08-04T15:06:00Z,27.9920,-90.3255,0.2,27.7,11111222
ADCP,ioos:station:wmo:42384:1,2021-08-04T15:16:00Z,27.9920,-90.3255,0.2,27.7,11111222
ADCP,ioos:station:wmo:42384:1,2021-08-04T15:26:00Z,27.9920,-90.3255,0.2,27.8,11111222
ADCP,ioos:station:wmo:42384:1,2021-08-04T15:36:00Z,27.9920,-90.3255,0.2,27.7,11111222
ADCP,ioos:station:wmo:42384:1,2021-08-04T15:46:00Z,27.9920,-90.3255,0.2,27.7,11111222
ADCP,ioos:station:wmo:42384:1,2021-08-04T15:56:00Z,27.9920,-90.3255,0.1,27.7,11111222
ADCP,ioos:station:wmo:42384:1,2021-08-04T16:06:00Z,27.9920,-90.3255,0.1,27.7,11111222
ADCP,ioos:station:wmo:42384:1,2021-08-04T16:16:00Z,27.9920,-90.3255,0.2,27.6,11111222
ADCP,ioos:station:wmo:42384:1,2021-08-04T16:26:00Z,27.9920,-90.3255,0.1,27.6,11111222
ADCP,ioos:station:wmo:42384:1,2021-08-04T16:36:00Z,27.9920,-90.3255,0.2,27.5,11111222
ADCP,ioos:station:wmo:42384:1,2021-08-04T16:46:00Z,27.9920,-90.3255,0.1,27.5,11111222
ADCP,ioos:station:wmo:42384:1,2021-08-04T16:56:00Z,27.9920,-90.3255,0.2,27.6,11111222
ADCP,ioos:station:wmo:42384:1,2021-08-04T17:06:00Z,27.9920,-90.3255,0.1,27.6,11111222
ADCP,ioos:station:wmo:42384:1,2021-08-04T17:16:00Z,27.9920,-90.3255,0.2,27.7,11111222
ADCP,ioos:station:wmo:42384:1,2021-08-04T17:26:00Z,27.9920,-90.3255,0.2,27.7,11111222
ADCP,ioos:station:wmo:42384:1,2021-08-04T17:36:00Z,27.9920,-90.3255,0.2,27.8,11111222
ADCP,ioos:station:wmo:42384:1,2021-08-04T17:46:00Z,27.9920,-90.3255,0.2,28.0,11111222
ADCP,ioos:station:wmo:42384:1,2021-08-04T17:56:00Z,27.9920,-90.3255,0.2,28.3,11111222
ADCP,ioos:station:wmo:42384:1,2021-08-04T18:06:00Z,27.9920,-90.3255,0.2,28.5,11111222
ADCP,ioos:station:wmo:42384:1,2021-08-04T18:16:00Z,27.9920,-90.3255,0.1,28.6,11111222
ADCP,ioos:station:wmo:42384:1,2021-08-04T18:26:00Z,27.9920,-90.3255,0.2,28.6,11111222
ADCP,ioos:station:wmo:42384:1,2021-08-04T18:36:00Z,27.9920,-90.3255,0.2,28.4,11111222
ADCP,ioos:station:wmo:42384:1,2021-08-04T18:46:00Z,27.9920,-90.3255,0.3,28.3,11111222
ADCP,ioos:station:wmo:42384:1,2021-08-04T18:56:00Z,27.9920,-90.3255,0.2,28.3,11111222
ADCP,ioos:station:wmo:42384:1,2021-08-04T19:06:00Z,27.9920,-90.3255,0.2,28.4,11111222
ADCP,ioos:station:wmo:42384:1,2021-08-04T19:16:00Z,27.9920,-90.3255,0.2,28.5,11111222
ADCP,ioos:station:wmo:42384:1,2021-08-04T19:26:00Z,27.9920,-90.3255,0.2,28.7,11111222
ADCP,ioos:station:wmo:42384:1,2021-08-04T19:36:00Z,27.9920,-90.3255,0.2,28.9,11111222
ADCP,ioos:station:wmo:42384:1,2021-08-04T19:46:00Z,27.9920,-90.3255,0.1,28.3,11111222
ADCP,ioos:station:wmo:42384:1,2021-08-04T19:56:00Z,27.9920,-90.3255,0.3,27.8,11111222
ADCP,ioos:station:wmo:42384:1,2021-08-04T20:06:00Z,27.9920,-90.3255,0.2,27.4,11111222
ADCP,ioos:station:wmo:42384:1,2021-08-04T20:16:00Z,27.9920,-90.3255,0.3,26.9,11111222
ADCP,ioos:station:wmo:42384:1,2021-08-04T20:26:00Z,27.9920,-90.3255,0.3,26.4,11111222
ADCP,ioos:station:wmo:42384:1,2021-08-04T20:36:00Z,27.9920,-90.3255,0.4,25.9,11111222
ADCP,ioos:station:wmo:42384:1,2021-08-04T20:46:00Z,27.9920,-90.3255,0.3,25.8,11111222
ADCP,ioos:station:wmo:42384:1,2021-08-04T20:56:00Z,27.9920,-90.3255,0.4,25.9,11111222
ADCP,ioos:station:wmo:42384:1,2021-08-04T21:06:00Z,27.9920,-90.3255,0.4,26.0,11111222
ADCP,ioos:station:wmo:42384:1,2021-08-04T21:16:00Z,27.9920,-90.3255,0.3,26.1,11111222
ADCP,ioos:station:wmo:42384:1,2021-08-04T21:26:00Z,27.9920,-90.3255,0.3,26.3,11111222
ADCP,ioos:station:wmo:42384:1,2021-08-04T21:36:00Z,27.9920,-90.3255,0.3,26.3,11111222
ADCP,ioos:station:wmo:42384:1,2021-08-04T21:46:00Z,27.9920,-90.3255,0.3,26.4,11111222
ADCP,ioos:station:wmo:42384:1,2021-08-04T21:56:00Z,27.9920,-90.3255,0.3,26.5,11111222
ADCP,ioos:station:wmo:42384:1,2021-08-04T22:06:00Z,27.9920,-90.3255,0.3,26.5,11111222
ADCP,ioos:station:wmo:42384:1,2021-08-04T22:16:00Z,27.9920,-90.3255,0.2,26.6,11111222
ADCP,ioos:station:wmo:42384:1,2021-08-04T22:26:00Z,27.9920,-90.3255,0.3,26.7,11111222
ADCP,ioos:station:wmo:42384:1,2021-08-04T22:36:00Z,27.9920,-90.3255,0.3,26.9,11111222
ADCP,ioos:station:wmo:42384:1,2021-08-04T22:46:00Z,27.9920,-90.3255,0.3,27.0,11111222
ADCP,ioos:station:wmo:42384:1,2021-08-04T22:56:00Z,27.9920,-90.3255,0.2,27.2,11111222
ADCP,ioos:station:wmo:42384:1,2021-08-04T23:06:00Z,27.9920,-90.3255,0.2,27.3,11111222
ADCP,ioos:station:wmo:42384:1,2021-08-04T23:16:00Z,27.9920,-90.3255,0.3,27.5,11111222
ADCP,ioos:station:wmo:42384:1,2021-08-04T23:26:00Z,27.9920,-90.3255,0.1,27.6,11111222
ADCP,ioos:station:wmo:42384:1,2021-08-04T23:36:00Z,27.9920,-90.3255,0.2,27.7,11111222
ADCP,ioos:station:wmo:42384:1,2021-08-04T23:46:00Z,27.9920,-90.3255,0.2,27.7,11111222
ADCP,ioos:station:wmo:42384:1,2021-08-04T23:56:00Z,27.9920,-90.3255,0.2,27.7,11111222
ADCP,ioos:station:wmo:42384:1,2021-08-05T00:06:00Z,27.9920,-90.3255,0.2,27.8,11111222
ADCP,ioos:station:wmo:42384:1,2021-08-05T00:16:00Z,27.9920,-90.3255,0.1,27.8,11111222
ADCP,ioos:station:wmo:42384:1,2021-08-05T00:26:00Z,27.9920,-90.3255,0.1,27.8,11111222
ADCP,ioos:station:wmo:42384:1,2021-08-05T00:36:00Z,27.9920,-90.3255,0.2,27.8,11111222
ADCP,ioos:station:wmo:42384:1,2021-08-05T00:46:00Z,27.9920,-90.3255,0.2,27.9,11111222
ADCP,ioos:station:wmo:42384:1,2021-08-05T00:56:00Z,27.9920,-90.3255,0.2,27.9,11111222
ADCP,ioos:station:wmo:42384:1,2021-08-05T01:06:00Z,27.9920,-90.3255,0.2,27.9,11111222
ADCP,ioos:station:wmo:42384:1,2021-08-05T01:16:00Z,27.9920,-90.3255,0.2,27.9,11111222
ADCP,ioos:station:wmo:42384:1,2021-08-05T01:26:00Z,27.9920,-90.3255,0.2,27.9,11111222
ADCP,ioos:station:wmo:42384:1,2021-08-05T01:36:00Z,27.9920,-90.3255,0.3,27.9,11111222
ADCP,ioos:station:wmo:42384:1,2021-08-05T01:46:00Z,27.9920,-90.3255,0.2,27.9,11111222
ADCP,ioos:station:wmo:42384:1,2021-08-05T01:56:00Z,27.9920,-90.3255,0.2,27.9,11111222
ADCP,ioos:station:wmo:42384:1,2021-08-05T02:06:00Z,27.9920,-90.3255,0.2,27.9,11111222
ADCP,ioos:station:wmo:42384:1,2021-08-05T02:16:00Z,27.9920,-90.3255,0.2,28.0,11111222
ADCP,ioos:station:wmo:42384:1,2021-08-05T02:26:00Z,27.9920,-90.3255,0.2,28.0,11111222
ADCP,ioos:station:wmo:42384:1,2021-08-05T02:36:00Z,27.9920,-90.3255,0.2,28.0,11111222
ADCP,ioos:station:wmo:42384:1,2021-08-05T02:46:00Z,27.9920,-90.3255,0.2,28.0,11111222
ADCP,ioos:station:wmo:42384:1,2021-08-05T02:56:00Z,27.9920,-90.3255,0.2,28.0,11111222
ADCP,ioos:station:wmo:42384:1,2021-08-05T03:06:00Z,27.9920,-90.3255,0.2,28.0,11111222
ADCP,ioos:station:wmo:42384:1,2021-08-05T03:16:00Z,27.9920,-90.3255,0.2,28.1,11111222
ADCP,ioos:station:wmo:42384:1,2021-08-05T03:26:00Z,27.9920,-90.3255,0.3,28.1,11111222
ADCP,ioos:station:wmo:42384:1,2021-08-05T03:36:00Z,27.9920,-90.3255,0.2,28.2,11111222
ADCP,ioos:station:wmo:42384:1,2021-08-05T03:46:00Z,27.9920,-90.3255,0.3,28.2,11111222
ADCP,ioos:station:wmo:42384:1,2021-08-05T03:56:00Z,27.9920,-90.3255,0.2,28.3,11111222
ADCP,ioos:station:wmo:42384:1,2021-08-05T04:06:00Z,27.9920,-90.3255,0.3,28.4,11111222
ADCP,ioos:station:wmo:42384:1,2021-08-05T04:16:00Z,27.9920,-90.3255,0.2,28.4,11111222
ADCP,ioos:station:wmo:42384:1,2021-08-05T04:26:00Z,27.9920,-90.3255,0.2,28.5,11111222
ADCP,ioos:station:wmo:42384:1,2021-08-05T04:36:00Z,27.9920,-90.3255,0.2,28.5,11111222
ADCP,ioos:station:wmo:42384:1,2021-08-05T04:47:00Z,27.9920,-90.3255,0.2,28.5,11111222
ADCP,ioos:station:wmo:42384:1,2021-08-05T04:57:00Z,27.9920,-90.3255,0.2,28.5,11111222
ADCP,ioos:station:wmo:42384:1,2021-08-05T05:07:00Z,27.9920,-90.3255,0.2,28.5,11111222
ADCP,ioos:station:wmo:42384:1,2021-08-05T05:17:00Z,27.9920,-90.3255,0.3,28.5,11111222
ADCP,ioos:station:wmo:42384:1,2021-08-05T05:27:00Z,27.9920,-90.3255,0.2,28.6,11111222
ADCP,ioos:station:wmo:42384:1,2021-08-05T05:37:00Z,27.9920,-90.3255,0.3,28.6,11111222
ADCP,ioos:station:wmo:42384:1,2021-08-05T05:47:00Z,27.9920,-90.3255,0.2,28.6,11111222
ADCP,ioos:station:wmo:42384:1,2021-08-05T05:57:00Z,27.9920,-90.3255,0.2,28.6,11111222
ADCP,ioos:station:wmo:42384:1,2021-08-05T06:07:00Z,27.9920,-90.3255,0.2,28.6,11111222
ADCP,ioos:station:wmo:42384:1,2021-08-05T06:17:00Z,27.9920,-90.3255,0.2,28.6,11111222
ADCP,ioos:station:wmo:42384:1,2021-08-05T06:27:00Z,27.9920,-90.3255,0.2,28.6,11111222
ADCP,ioos:station:wmo:42384:1,2021-08-05T06:37:00Z,27.9920,-90.3255,0.3,28.6,11111222
ADCP,ioos:station:wmo:42384:1,2021-08-05T06:47:00Z,27.9920,-90.3255,0.2,28.6,11111222
ADCP,ioos:station:wmo:42384:1,2021-08-05T06:57:00Z,27.9920,-90.3255,0.2,28.6,11111222
ADCP,ioos:station:wmo:42384:1,2021-08-05T07:07:00Z,27.9920,-90.3255,0.2,28.6,11111222
ADCP,ioos:station:wmo:42384:1,2021-08-05T07:17:00Z,27.9920,-90.3255,0.3,28.6,11111222
ADCP,ioos:station:wmo:42384:1,2021-08-05T07:27:00Z,27.9920,-90.3255,0.2,28.6,11111222
ADCP,ioos:station:wmo:42384:1,2021-08-05T07:37:00Z,27.9920,-90.3255,0.3,28.6,11111222
ADCP,ioos:station:wmo:42384:1,2021-08-05T07:47:00Z,27.9920,-90.3255,0.2,28.6,11111222
ADCP,ioos:station:wmo:42384:1,2021-08-05T07:57:00Z,27.9920,-90.3255,0.2,28.6,11111222
ADCP,ioos:station:wmo:42384:1,2021-08-05T08:07:00Z,27.9920,-90.3255,0.3,28.6,11111222
ADCP,ioos:station:wmo:42384:1,2021-08-05T08:17:00Z,27.9920,-90.3255,0.2,28.6,11111222
ADCP,ioos:station:wmo:42384:1,2021-08-05T08:27:00Z,27.9920,-90.3255,0.3,28.6,11111222
ADCP,ioos:station:wmo:42384:1,2021-08-05T08:37:00Z,27.9920,-90.3255,0.3,28.6,11111222
ADCP,ioos:station:wmo:42384:1,2021-08-05T08:47:00Z,27.9920,-90.3255,0.2,28.6,11111222
ADCP,ioos:station:wmo:42384:1,2021-08-05T08:57:00Z,27.9920,-90.3255,0.2,28.6,11111222
ADCP,ioos:station:wmo:42384:1,2021-08-05T09:07:00Z,27.9920,-90.3255,0.3,28.6,11111222
ADCP,ioos:station:wmo:42384:1,2021-08-05T09:17:00Z,27.9920,-90.3255,0.3,28.6,11111222
ADCP,ioos:station:wmo:42384:1,2021-08-05T09:27:00Z,27.9920,-90.3255,0.2,28.6,11111222
ADCP,ioos:station:wmo:42384:1,2021-08-05T09:37:00Z,27.9920,-90.3255,0.3,28.6,11111222
ADCP,ioos:station:wmo:42384:1,2021-08-05T09:47:00Z,27.9920,-90.3255,0.3,28.7,11111222
ADCP,ioos:station:wmo:42384:1,2021-08-05T09:57:00Z,27.9920,-90.3255,0.2,28.7,11111222
ADCP,ioos:station:wmo:42384:1,2021-08-05T10:07:00Z,27.9920,-90.3255,0.2,28.7,11111222
ADCP,ioos:station:wmo:42384:1,2021-08-05T10:17:00Z,27.9920,-90.3255,0.3,28.8,11111222
ADCP,ioos:station:wmo:42384:1,2021-08-05T10:27:00Z,27.9920,-90.3255,0.3,28.7,11111222
ADCP,ioos:station:wmo:42384:1,2021-08-05T10:37:00Z,27.9920,-90.3255,0.2,27.8,11111222
ADCP,ioos:station:wmo:42384:1,2021-08-05T10:47:00Z,27.9920,-90.3255,0.3,26.8,11111222
ADCP,ioos:station:wmo:42384:1,2021-08-05T10:57:00Z,27.9920,-90.3255,0.4,26.1,11111222
ADCP,ioos:station:wmo:42384:1,2021-08-05T11:07:00Z,27.9920,-90.3255,0.3,25.3,11111222
ADCP,ioos:station:wmo:42384:1,2021-08-05T11:17:00Z,27.9920,-90.3255,0.3,25.5,11111222
ADCP,ioos:station:wmo:42384:1,2021-08-05T11:27:00Z,27.9920,-90.3255,0.4,25.6,11111222
ADCP,ioos:station:wmo:42384:1,2021-08-05T11:37:00Z,27.9920,-90.3255,0.5,25.8,11111222
ADCP,ioos:station:wmo:42384:1,2021-08-05T11:47:00Z,27.9920,-90.3255,0.5,25.9,11111222
ADCP,ioos:station:wmo:42384:1,2021-08-05T11:57:00Z,27.9920,-90.3255,0.5,26.0,11111222
ADCP,ioos:station:wmo:42384:1,2021-08-05T12:07:00Z,27.9920,-90.3255,0.4,26.0,11111222
ADCP,ioos:station:wmo:42384:1,2021-08-05T12:17:00Z,27.9920,-90.3255,0.4,26.1,11111222
ADCP,ioos:station:wmo:42384:1,2021-08-05T12:27:00Z,27.9920,-90.3255,0.4,26.4,11111222
ADCP,ioos:station:wmo:42384:1,2021-08-05T12:37:00Z,27.9920,-90.3255,0.3,26.8,11111222
ADCP,ioos:station:wmo:42384:1,2021-08-05T12:47:00Z,27.9920,-90.3255,0.3,27.2,11111222
ADCP,ioos:station:wmo:42384:1,2021-08-05T12:57:00Z,27.9920,-90.3255,0.2,27.5,11111222
ADCP,ioos:station:wmo:42384:1,2021-08-05T13:07:00Z,27.9920,-90.3255,0.2,27.7,11111222
ADCP,ioos:station:wmo:42384:1,2021-08-05T13:17:00Z,27.9920,-90.3255,0.2,27.5,11111222
ADCP,ioos:station:wmo:42384:1,2021-08-05T13:27:00Z,27.9920,-90.3255,0.7,27.8,11111222
ADCP,ioos:station:wmo:42384:1,2021-08-05T13:37:00Z,27.9920,-90.3255,6.6,29.9,11111222
ADCP,ioos:station:wmo:42384:1,2021-08-05T13:47:00Z,27.9920,-90.3255,7.5,29.9,11111222
ADCP,ioos:station:wmo:42384:1,2021-08-05T13:57:00Z,27.9920,-90.3255,7.4,30.0,11111222
ADCP,ioos:station:wmo:42384:1,2021-08-05T14:07:00Z,27.9920,-90.3255,7.5,30.0,11111222
ADCP,ioos:station:wmo:42384:1,2021-08-05T17:01:00Z,27.9920,-90.3255,7.1,30.0,11111222
ADCP,ioos:station:wmo:42384:1,2021-08-05T17:11:00Z,27.9920,-90.3255,7.2,30.0,11111222
ADCP,ioos:station:wmo:42384:1,2021-08-05T17:21:00Z,27.9920,-90.3255,7.2,30.0,11111222
ADCP,ioos:station:wmo:42384:1,2021-08-05T17:31:00Z,27.9920,-90.3255,7.2,30.0,11111222
ADCP,ioos:station:wmo:42384:1,2021-08-05T17:41:00Z,27.9920,-90.3255,7.2,30.0,11111222
ADCP,ioos:station:wmo:42384:1,2021-08-05T17:51:00Z,27.9920,-90.3255,7.2,30.0,11111222
ADCP,ioos:station:wmo:42384:1,2021-08-05T18:01:00Z,27.9920,-90.3255,7.3,30.1,11111222
ADCP,ioos:station:wmo:42384:1,2021-08-05T18:11:00Z,27.9920,-90.3255,7.1,30.1,11111222
ADCP,ioos:station:wmo:42384:1,2021-08-05T18:21:00Z,27.9920,-90.3255,7.1,30.1,11111222
ADCP,ioos:station:wmo:42384:1,2021-08-05T18:31:00Z,27.9920,-90.3255,7.1,30.1,11111222
ADCP,ioos:station:wmo:42384:1,2021-08-05T18:41:00Z,27.9920,-90.3255,7.0,30.1,11111222
ADCP,ioos:station:wmo:42384:1,2021-08-05T18:51:00Z,27.9920,-90.3255,7.2,30.1,11111222
ADCP,ioos:station:wmo:42384:1,2021-08-05T19:01:00Z,27.9920,-90.3255,7.1,30.1,11111222
ADCP,ioos:station:wmo:42384:1,2021-08-05T19:11:00Z,27.9920,-90.3255,7.1,30.1,11111222
ADCP,ioos:station:wmo:42384:1,2021-08-05T19:21:00Z,27.9920,-90.3255,7.0,30.1,11111222
ADCP,ioos:station:wmo:42384:1,2021-08-05T19:31:00Z,27.9920,-90.3255,7.1,30.1,11111222
ADCP,ioos:station:wmo:42384:1,2021-08-05T19:41:00Z,27.9920,-90.3255,7.0,30.1,11111222
ADCP,ioos:station:wmo:42384:1,2021-08-05T19:51:00Z,27.9920,-90.3255,7.1,30.1,11111222
ADCP,ioos:station:wmo:42384:1,2021-08-05T20:01:00Z,27.9920,-90.3255,6.9,30.1,11111222
ADCP,ioos:station:wmo:42384:1,2021-08-05T20:11:00Z,27.9920,-90.3255,6.9,30.1,11111222
ADCP,ioos:station:wmo:42384:1,2021-08-05T20:21:00Z,27.9920,-90.3255,7.0,30.1,11111222
ADCP,ioos:station:wmo:42384:1,2021-08-05T20:31:00Z,27.9920,-90.3255,7.0,30.1,11111222
ADCP,ioos:station:wmo:42384:1,2021-08-05T20:41:00Z,27.9920,-90.3255,6.9,30.1,11111222
ADCP,ioos:station:wmo:42384:1,2021-08-05T20:51:00Z,27.9920,-90.3255,6.9,30.1,11111222
ADCP,ioos:station:wmo:42384:1,2021-08-05T21:01:00Z,27.9920,-90.3255,6.9,30.1,11111222
ADCP,ioos:station:wmo:42384:1,2021-08-05T21:11:00Z,27.9920,-90.3255,6.9,30.1,11111222
ADCP,ioos:station:wmo:42384:1,2021-08-05T21:21:00Z,27.9920,-90.3255,6.9,30.1,11111222
ADCP,ioos:station:wmo:42384:1,2021-08-05T21:31:00Z,27.9920,-90.3255,6.9,30.1,11111222
ADCP,ioos:station:wmo:42384:1,2021-08-05T21:41:00Z,27.9920,-90.3255,6.9,30.1,11111222
ADCP,ioos:station:wmo:42384:1,2021-08-05T21:51:00Z,27.9920,-90.3255,6.9,30.1,11111222
ADCP,ioos:station:wmo:42384:1,2021-08-05T22:01:00Z,27.9920,-90.3255,7.0,30.1,11111222
ADCP,ioos:station:wmo:42384:1,2021-08-05T22:11:00Z,27.9920,-90.3255,6.9,30.1,11111222
ADCP,ioos:station:wmo:42384:1,2021-08-05T22:21:00Z,27.9920,-90.3255,7.0,30.1,11111222
ADCP,ioos:station:wmo:42384:1,2021-08-05T22:31:00Z,27.9920,-90.3255,6.9,30.1,11111222
ADCP,ioos:station:wmo:42384:1,2021-08-05T22:41:00Z,27.9920,-90.3255,6.9,30.1,11111222
ADCP,ioos:station:wmo:42384:1,2021-08-05T22:51:00Z,27.9920,-90.3255,6.9,30.1,11111222
ADCP,ioos:station:wmo:42384:1,2021-08-05T23:01:00Z,27.9920,-90.3255,6.8,30.1,11111222
ADCP,ioos:station:wmo:42384:1,2021-08-05T23:11:00Z,27.9920,-90.3255,6.9,30.1,11111222
ADCP,ioos:station:wmo:42384:1,2021-08-05T23:21:00Z,27.9920,-90.3255,6.8,30.1,11111222
ADCP,ioos:station:wmo:42384:1,2021-08-05T23:31:00Z,27.9920,-90.3255,7.0,30.0,11111222
ADCP,ioos:station:wmo:42384:1,2021-08-05T23:41:00Z,27.9920,-90.3255,6.9,30.1,11111222
ADCP,ioos:station:wmo:42384:1,2021-08-05T23:51:00Z,27.9920,-90.3255,6.9,30.1,11111222
ADCP,ioos:station:wmo:42384:1,2021-08-06T00:01:00Z,27.9920,-90.3255,6.9,30.1,11111222